Voltar ao catálogo

THORAD AGENA D DEB

AtivoLEO
NORAD 4453·DEBRIS·🇺🇸 United States

Lançado Sep 30, 1969 de Vandenberg Space Force Base

Loading…

Próximas Passagens (próximas 24 horas)

TLE

AtualizadoSource: Space-Track

Época: Sep 14, 2026, 05:25 UTC

1 04453U 69082EY  26257.22581528 -.00000223  00000-0 -92881-4 0  9997
2 04453  70.1343 339.0428 0032715   8.8337 351.3346 14.11241095921029

Acompanhe THORAD AGENA D DEB em tempo real com AllMySat

Download on the App Store